Time,TemperatureF,DewpointF,PressureIn,WindDirection,WindDirectionDegrees,WindSpeedMPH,WindSpeedGustMPH,Humidity,HourlyPrecipIn,Conditions,Clouds,dailyrainin,SoftwareType,DateUTC
2016-07-25 00:09:00,74.3,45.0,30.01,SW,219,0.0,0.0,35,0.00,,,0.00,weatherlink.com 1.10,2016-07-25 07:09:00,
2016-07-25 00:24:00,74.0,45.0,30.01,SW,219,0.0,0.0,35,0.00,,,0.00,weatherlink.com 1.10,2016-07-25 07:24:00,
2016-07-25 00:39:00,73.9,44.0,30.01,SW,219,0.0,0.0,34,0.00,,,0.00,weatherlink.com 1.10,2016-07-25 07:39:00,
2016-07-25 00:54:00,74.0,44.0,30.01,SW,219,0.0,0.0,34,0.00,,,0.00,weatherlink.com 1.10,2016-07-25 07:54:00,
2016-07-25 01:09:00,74.0,43.0,30.01,SW,219,0.0,0.0,33,0.00,,,0.00,weatherlink.com 1.10,2016-07-25 08:09:00,
2016-07-25 01:24:00,74.0,43.0,30.01,SW,219,0.0,0.0,33,0.00,,,0.00,weatherlink.com 1.10,2016-07-25 08:24:00,
2016-07-25 01:39:00,74.0,43.0,30.01,SW,219,0.0,0.0,33,0.00,,,0.00,weatherlink.com 1.10,2016-07-25 08:39:00,
2016-07-25 01:54:00,74.0,43.0,30.01,SW,219,0.0,0.0,33,0.00,,,0.00,weatherlink.com 1.10,2016-07-25 08:54:00,
2016-07-25 02:09:00,74.1,43.0,30.01,SW,219,0.0,0.0,33,0.00,,,0.00,weatherlink.com 1.10,2016-07-25 09:09:00,
2016-07-25 02:25:00,74.0,43.0,30.01,SW,219,0.0,0.0,33,0.00,,,0.00,weatherlink.com 1.10,2016-07-25 09:25:00,
2016-07-25 02:39:00,74.0,43.0,30.01,SW,219,0.0,0.0,33,0.00,,,0.00,weatherlink.com 1.10,2016-07-25 09:39:00,
2016-07-25 02:54:00,73.9,42.0,30.00,SW,219,0.0,0.0,32,0.00,,,0.00,weatherlink.com 1.10,2016-07-25 09:54:00,
2016-07-25 03:09:00,73.9,42.0,30.01,SW,219,0.0,0.0,32,0.00,,,0.00,weatherlink.com 1.10,2016-07-25 10:09:00,
2016-07-25 03:24:00,73.6,42.0,30.00,SW,219,0.0,0.0,32,0.00,,,0.00,weatherlink.com 1.10,2016-07-25 10:24:00,
2016-07-25 03:39:00,73.5,41.0,30.00,SW,219,0.0,0.0,31,0.00,,,0.00,weatherlink.com 1.10,2016-07-25 10:39:00,
2016-07-25 03:54:00,73.8,41.0,30.01,SW,219,0.0,0.0,31,0.00,,,0.00,weatherlink.com 1.10,2016-07-25 10:54:00,
2016-07-25 04:10:00,73.8,41.0,30.01,SW,219,0.0,0.0,31,0.00,,,0.00,weatherlink.com 1.10,2016-07-25 11:10:00,
2016-07-25 04:25:00,73.6,40.0,30.01,SW,219,0.0,0.0,30,0.00,,,0.00,weatherlink.com 1.10,2016-07-25 11:25:00,
2016-07-25 04:40:00,73.4,40.0,30.01,SW,219,0.0,0.0,30,0.00,,,0.00,weatherlink.com 1.10,2016-07-25 11:40:00,
2016-07-25 04:55:00,73.4,40.0,30.01,SW,219,0.0,0.0,30,0.00,,,0.00,weatherlink.com 1.10,2016-07-25 11:55:00,
2016-07-25 05:10:00,73.2,39.0,30.01,SW,219,0.0,0.0,29,0.00,,,0.00,weatherlink.com 1.10,2016-07-25 12:10:00,
2016-07-25 05:25:00,73.4,39.0,30.01,SW,219,0.0,0.0,29,0.00,,,0.00,weatherlink.com 1.10,2016-07-25 12:25:00,
2016-07-25 05:40:00,73.4,39.0,30.01,SW,219,0.0,0.0,29,0.00,,,0.00,weatherlink.com 1.10,2016-07-25 12:40:00,
2016-07-25 05:55:00,73.5,39.0,30.02,SW,219,0.0,0.0,29,0.00,,,0.00,weatherlink.com 1.10,2016-07-25 12:55:00,
2016-07-25 06:10:00,73.5,39.0,30.02,SW,219,0.0,0.0,29,0.00,,,0.00,weatherlink.com 1.10,2016-07-25 13:10:00,
2016-07-25 06:25:00,73.4,39.0,30.02,SW,219,0.0,0.0,29,0.00,,,0.00,weatherlink.com 1.10,2016-07-25 13:25:00,
2016-07-25 06:40:00,73.5,40.0,30.03,SW,219,0.0,0.0,30,0.00,,,0.00,weatherlink.com 1.10,2016-07-25 13:40:00,
2016-07-25 06:55:00,73.5,41.0,30.03,SW,219,0.0,0.0,31,0.00,,,0.00,weatherlink.com 1.10,2016-07-25 13:55:00,
2016-07-25 07:10:00,73.5,42.0,30.03,SW,219,0.0,0.0,32,0.00,,,0.00,weatherlink.com 1.10,2016-07-25 14:10:00,
2016-07-25 07:25:00,74.0,42.0,30.03,SW,219,0.0,0.0,32,0.00,,,0.00,weatherlink.com 1.10,2016-07-25 14:25:00,
2016-07-25 07:40:00,74.3,43.0,30.04,SW,219,0.0,0.0,33,0.00,,,0.00,weatherlink.com 1.10,2016-07-25 14:40:00,
2016-07-25 07:55:00,74.9,44.0,30.04,SW,219,0.0,1.0,33,0.00,,,0.00,weatherlink.com 1.10,2016-07-25 14:55:00,
2016-07-25 08:10:00,76.0,45.0,30.04,SW,219,0.0,1.0,33,0.00,,,0.00,weatherlink.com 1.10,2016-07-25 15:10:00,
2016-07-25 08:25:00,77.1,45.0,30.04,SW,219,0.0,0.0,32,0.00,,,0.00,weatherlink.com 1.10,2016-07-25 15:25:00,
2016-07-25 08:40:00,78.0,47.0,30.04,SW,219,0.0,0.0,34,0.00,,,0.00,weatherlink.com 1.10,2016-07-25 15:40:00,
2016-07-25 08:55:00,78.9,47.0,30.04,SW,219,0.0,0.0,33,0.00,,,0.00,weatherlink.com 1.10,2016-07-25 15:55:00,
2016-07-25 09:10:00,80.5,47.0,30.04,SW,219,0.0,0.0,31,0.00,,,0.00,weatherlink.com 1.10,2016-07-25 16:10:00,
2016-07-25 09:25:00,81.1,50.0,30.04,SW,219,0.0,1.0,34,0.00,,,0.00,weatherlink.com 1.10,2016-07-25 16:25:00,
2016-07-25 09:40:00,81.2,50.0,30.04,SW,219,0.0,0.0,34,0.00,,,0.00,weatherlink.com 1.10,2016-07-25 16:40:00,
2016-07-25 09:55:00,81.7,50.0,30.04,SW,219,0.0,0.0,33,0.00,,,0.00,weatherlink.com 1.10,2016-07-25 16:55:00,
2016-07-25 10:10:00,82.2,50.0,30.04,SW,219,0.0,0.0,32,0.00,,,0.00,weatherlink.com 1.10,2016-07-25 17:10:00,
2016-07-25 10:25:00,83.0,48.0,30.04,SW,219,0.0,1.0,29,0.00,,,0.00,weatherlink.com 1.10,2016-07-25 17:25:00,
2016-07-25 10:40:00,83.8,47.0,30.04,SW,219,0.0,1.0,28,0.00,,,0.00,weatherlink.com 1.10,2016-07-25 17:40:00,
2016-07-25 10:55:00,84.8,49.0,30.04,SW,234,0.0,1.0,29,0.00,,,0.00,weatherlink.com 1.10,2016-07-25 17:55:00,
2016-07-25 11:10:00,86.1,48.0,30.04,SSW,210,0.0,1.0,27,0.00,,,0.00,weatherlink.com 1.10,2016-07-25 18:10:00,
2016-07-25 11:26:00,87.1,47.0,30.05,SSW,210,0.0,1.0,25,0.00,,,0.00,weatherlink.com 1.10,2016-07-25 18:26:00,
2016-07-25 11:41:00,88.5,49.0,30.04,SSW,210,0.0,1.0,26,0.00,,,0.00,weatherlink.com 1.10,2016-07-25 18:41:00,
2016-07-25 11:56:00,88.9,48.0,30.05,SSW,211,0.0,1.0,24,0.00,,,0.00,weatherlink.com 1.10,2016-07-25 18:56:00,
2016-07-25 12:11:00,89.1,47.0,30.05,South,186,0.0,2.0,23,0.00,,,0.00,weatherlink.com 1.10,2016-07-25 19:11:00,
2016-07-25 12:26:00,89.6,49.0,30.05,SW,216,0.0,1.0,25,0.00,,,0.00,weatherlink.com 1.10,2016-07-25 19:26:00,
2016-07-25 12:41:00,90.4,49.0,30.05,SSW,192,0.0,4.0,24,0.00,,,0.00,weatherlink.com 1.10,2016-07-25 19:41:00,
2016-07-25 12:56:00,90.2,50.0,30.04,WSW,244,0.0,1.0,25,0.00,,,0.00,weatherlink.com 1.10,2016-07-25 19:56:00,
2016-07-25 13:11:00,91.7,52.0,30.04,SW,227,0.0,6.0,26,0.00,,,0.00,weatherlink.com 1.10,2016-07-25 20:11:00,
2016-07-25 13:26:00,90.7,52.0,30.04,SW,222,0.0,4.0,27,0.00,,,0.00,weatherlink.com 1.10,2016-07-25 20:26:00,
2016-07-25 13:41:00,90.8,51.0,30.04,SW,217,0.0,4.0,26,0.00,,,0.00,weatherlink.com 1.10,2016-07-25 20:41:00,
2016-07-25 13:56:00,91.8,50.0,30.04,South,180,1.0,1.0,24,0.00,,,0.00,weatherlink.com 1.10,2016-07-25 20:56:00,
2016-07-25 14:11:00,91.2,52.0,30.04,SSE,165,0.0,6.0,26,0.00,,,0.00,weatherlink.com 1.10,2016-07-25 21:11:00,
2016-07-25 14:26:00,91.7,52.0,30.03,SSW,210,0.0,6.0,26,0.00,,,0.00,weatherlink.com 1.10,2016-07-25 21:26:00,
2016-07-25 14:41:00,90.9,51.0,30.03,SSE,165,0.0,7.0,25,0.00,,,0.00,weatherlink.com 1.10,2016-07-25 21:41:00,
2016-07-25 14:56:00,91.5,52.0,30.03,SSW,209,0.0,5.0,26,0.00,,,0.00,weatherlink.com 1.10,2016-07-25 21:56:00,
2016-07-25 15:11:00,92.1,50.0,30.03,SSW,195,0.0,1.0,24,0.00,,,0.00,weatherlink.com 1.10,2016-07-25 22:11:00,
2016-07-25 15:26:00,92.4,51.0,30.02,South,182,0.0,1.0,24,0.00,,,0.00,weatherlink.com 1.10,2016-07-25 22:26:00,
2016-07-25 15:41:00,91.4,50.0,30.03,SW,214,0.0,4.0,24,0.00,,,0.00,weatherlink.com 1.10,2016-07-25 22:41:00,
2016-07-25 15:56:00,90.9,49.0,30.02,SW,232,0.0,1.0,24,0.00,,,0.00,weatherlink.com 1.10,2016-07-25 22:56:00,
2016-07-25 16:11:00,89.3,49.0,30.03,WSW,244,4.0,5.0,25,0.00,,,0.00,weatherlink.com 1.10,2016-07-25 23:11:00,
2016-07-25 16:26:00,89.2,50.0,30.03,West,265,0.0,5.0,26,0.00,,,0.00,weatherlink.com 1.10,2016-07-25 23:26:00,
2016-07-25 16:41:00,89.0,50.0,30.02,SSW,192,0.0,4.0,26,0.00,,,0.00,weatherlink.com 1.10,2016-07-25 23:41:00,
2016-07-25 16:56:00,89.8,52.0,30.02,WSW,237,0.0,1.0,27,0.00,,,0.00,weatherlink.com 1.10,2016-07-25 23:56:00,
2016-07-25 17:11:00,89.9,51.0,30.02,WSW,240,0.0,1.0,26,0.00,,,0.00,weatherlink.com 1.10,2016-07-26 00:11:00,
2016-07-25 17:26:00,89.8,50.0,30.02,SW,218,0.0,4.0,25,0.00,,,0.00,weatherlink.com 1.10,2016-07-26 00:26:00,
2016-07-25 17:41:00,90.2,51.0,30.02,SW,218,0.0,0.0,26,0.00,,,0.00,weatherlink.com 1.10,2016-07-26 00:41:00,
2016-07-25 17:56:00,89.6,48.0,30.03,SSW,200,0.0,5.0,24,0.00,,,0.00,weatherlink.com 1.10,2016-07-26 00:56:00,